Flag for Germany Weather past 2 weeks in Warstein, North Rhine-Westphalia, Germany

Now
63 °F

Passing clouds.


Feels Like: 63 °F
Forecast: 57 / 70 °F
Wind: 2 mph from North

Location: Paderborn / Lippstadt

Current Time: Sep 20, 2014 at 12:11:25 AM

Latest Report: Sep 19, 2014 at 11:20 PM


Visibility: N/A

Pressure: 29.95 "Hg

Humidity: 100%

Dew point: 63 °F

Location of WarsteinLocation

Historic Weather in Warstein — Graph

°F

Warstein temperature yesterday

Maximum temperature yesterday: 72 °F (at 1:50 PM)
Minimum temperature yesterday: 59 °F (at 3:20 AM)
Average temperature yesterday: 65 °F

Past Weeks' High & Low Weather Summary

 TemperatureHumidityPressure
High75 °F (Sep 6, 2:20 PM)100% (Sep 5, 10:50 PM)30.24 "Hg (Sep 5, 10:50 PM)
Low45 °F (Sep 12, 3:50 AM)50% (Sep 17, 4:20 PM)29.86 "Hg (Sep 19, 4:50 AM)
Average61 °F85%30.03 "Hg
* Reported Sep 4 10:20 PM — Sep 19 10:50 PM, Warstein, Weather by CustomWeather, © 2014

Note: Actual official high and low records may vary slightly from our data, if they occured in-between our weather recording intervals... More about our weather records

Advertising

Warstein weather history for previous 24 hours

 ConditionsComfort  
Time TempWeatherWind HumidityBarometerVisibility
10:50 PM
Sep 19
63 °FPassing clouds.3 mph100%29.92 "HgN/A
10:20 PM63 °FSprinkles. Passing clouds.3 mph100%29.92 "HgN/A
9:50 PM63 °FPassing clouds.2 mph100%29.92 "HgN/A
9:20 PM63 °FThundershowers. Passing clouds.2 mph100%29.92 "HgN/A
8:50 PM64 °FThundershowers. Passing clouds.2 mph94%29.92 "HgN/A
8:20 PM63 °FThundershowers. Broken clouds.3 mph100%29.92 "HgN/A
7:50 PM64 °FThunderstorms. Partly sunny.3 mph100%29.92 "HgN/A
7:20 PM64 °FThunderstorms. Partly sunny.5 mph100%29.92 "HgN/A
6:50 PM66 °FThunderstorms. Partly sunny.1 mph94%29.89 "HgN/A
6:20 PM66 °FThunderstorms. Partly sunny.6 mph94%29.92 "HgN/A
5:50 PM68 °FSprinkles. Scattered clouds.7 mph83%29.89 "HgN/A
5:20 PM70 °FScattered showers. Scattered clouds.6 mph78%29.89 "HgN/A
4:50 PM70 °FScattered showers. Scattered clouds.2 mph78%29.89 "HgN/A
4:20 PM72 °FPassing clouds.2 mph69%29.89 "HgN/A
3:50 PM72 °FPassing clouds.3 mph73%29.89 "HgN/A
3:20 PM70 °FPassing clouds.2 mph73%29.89 "HgN/A
2:50 PM72 °FScattered clouds.3 mph69%29.89 "HgN/A
2:20 PM72 °FScattered clouds.3 mph65%29.89 "HgN/A
1:50 PM72 °FScattered clouds.3 mph65%29.89 "HgN/A
1:20 PM70 °FScattered clouds.3 mph69%29.89 "Hg6 mi
12:50 PM68 °FScattered clouds.2 mph78%29.89 "Hg6 mi
12:20 PM68 °FScattered clouds.7 mph78%29.89 "Hg6 mi
11:50 AM68 °FScattered clouds.8 mph78%29.89 "Hg6 mi
11:20 AM68 °FScattered clouds.8 mph78%29.89 "Hg6 mi
10:50 AM66 °FScattered clouds.6 mph88%29.92 "Hg5 mi
10:20 AM64 °FPassing clouds.7 mph94%29.89 "Hg5 mi
9:50 AM61 °FSunny.6 mph100%29.89 "Hg10 mi
9:20 AM61 °FSunny.1 mph100%29.89 "Hg10 mi
8:50 AM61 °FSunny.3 mph94%29.89 "Hg10 mi
8:20 AM61 °FSunny.2 mph100%29.89 "Hg10 mi
7:50 AM61 °FClear.3 mph100%29.89 "Hg10 mi
7:20 AM61 °FClear.9 mph100%29.86 "Hg10 mi
6:50 AM61 °FClear.14 mph100%29.86 "Hg10 mi
6:20 AM61 °FClear.12 mph100%29.86 "Hg10 mi
5:50 AM61 °FClear.10 mph94%29.86 "Hg10 mi
5:20 AM61 °FClear.10 mph100%29.86 "Hg10 mi
4:50 AM61 °FPartly cloudy.9 mph94%29.86 "Hg5 mi
4:20 AM61 °FPartly cloudy.9 mph94%29.89 "Hg5 mi
3:50 AM59 °FLight rain. Partly cloudy.7 mph100%29.89 "Hg2 mi
3:20 AM59 °FRain. Partly cloudy.1 mph100%29.92 "Hg2 mi
12:20 AM61 °FThunderstorms. Partly cloudy.6 mph100%29.92 "Hg4 mi
Weather by CustomWeather, © 2014

See weather overviewHow to use our weather pages